STARLINK-36640, 67600

Orbit data source: Space-Track

STARLINK-36640, 67600 is a payload satellite owned by SpaceX/Seattle (US) in SSO that was launched on Thu, 29 Jan 2026 UTC via an FALCON 9 launch vehicle from the Air Force Western Test Range (AFWTR). Payload-class satellites include a variety of spacecraft equipped with specific instruments for various scientific and technological missions. These include communications satellites like Starlink; space stations such as the ISS; scientific satellites like the Hubble; Earth observation satellites from companies like Planet Labs, Umbra, and HawkEye 360; GPS; miniature CubeSats for education and research; and military/defense satellites.

Loading next visibility...
Identifier
67600, 2026-018M
Orbit
SSO
Country
Flag of USUS
Related business
Manufacturer
SpaceX/Seattle
Mission
Operational Commercial Communications
Bus & Motor
STARLINK V2MO, Unknown motor
Mass
575 kg wet, ~530 kg dry
Launch date (UTC)
2026-01-29 (5 months ago)
Launch vehicle
FALCON 9
Launch site
Air Force Western Test Range (AFWTR)
Object type
Payload
Rocket body
Debris
Shape & HBR
Box + 2 Pan, 17.7 m
Radar Cross Section
36.964 m², Large (>1 m²)

Expand to show TLE details & history
Last TLE update: 1 day ago

TLE from 1 day ago
0 STARLINK-36640
1 67600U 26018M   26170.74524840  .00015379  00000-0  47759-3 0  9996
2 67600  97.2833 235.4974 0000761  94.3826 265.7503 15.33454085 22979
Epoch: 2026-06-19T17:53Z
TLE epoch observation values (Epoch: 2026-06-19T17:53:09.461Z)
Latitude
-0.00011°
Longitude
59.23818°
Altitude
468.667 km
Speed
7.632 km/s
True Right ascension
15h 41m 59s
True Declination
0° 00' 00"
Sunlit
Object was in full shadow at epoch
Visualization orbit readout
Latitude
Unknown
Longitude
Unknown
Altitude
Unknown
Speed
Unknown
Apparent Right ascension
Unknown
Apparent Declination
Unknown
Sunlit
N/A
Visualization observer readout
Local Sidereal Time
07:12:35
Azimuth
Unknown
Elevation
Unknown
Doppler factor
Unknown
Orbital elements
Apogee altitude
462.979 km
Perigee altitude
461.938 km
Semi-major axis
6,840.596 km
Eccentricity
0.00008
Inclination
97.2833°
RAAN
235.4974°
Arg. of periapsis
94.3826°
True anomaly
265.7416°
Mean anomaly
265.7503°
Eccentric anomaly
265.74595°
Mean motion
3.83621 °/min
Orbital period
93.84 mins
BSTAR
0.00047759
Loading maneuver chart data...
Computing Atmospheric mass density...
Loading historical data...
Loading historical data...
Loading historical data...
Loading historical data...
Loading historical data...
Loading historical data...
Loading historical data...

Documentation

Showing up to 5 results
|